Weather History for Paganella, Italy

Change the Weather History Date:

Monday, December 24, 2012

  Actual Average Record
Temperature  
Mean Temperature 40 °F -  
Max Temperature 45 °F 28 °F 45 °F (2012)
Min Temperature 30 °F 19 °F 3 °F (2001)
Degree Days  
Heating Degree Days 25    
Moisture  
Dew Point 23 °F    
Average Humidity 45    
Maximum Humidity 100    
Minimum Humidity 24    
Precipitation  
Precipitation 0.00 in 0.04 in - ()
Sea Level Pressure  
Sea Level Pressure 30.09 in    
Wind  
Wind Speed 14 mph ()    
Max Wind Speed 28 mph    
Max Gust Speed -    
Visibility 9.6 miles    
Events Fog    
Averages and records for this station are not official NWS values.
T = Trace of Precipitation, MM = Missing Value Source: Averaged Metar Reports

Daily Weather History Graph

Daily Weather History Graph

Search for Another Location

Airport:

Trip Planner

Search our weather history database for the weather conditions in past years. The results will help you decide how hot, cold, wet, or windy it might be!

Date:

Astronomy

Dec. 24, 2012 Rise Set
Actual Time 7:56 AM CET 4:34 PM CET
Civil Twilight 7:22 AM CET 5:09 PM CET
Nautical Twilight 6:43 AM CET 5:47 PM CET
Astronomical Twilight 6:07 AM CET 6:23 PM CET
Moon 1:55 PM CET (12/24) 4:14 AM CET (12/24)
Length of Visible Light 9h 47m
Length of Day
8h 37m
Waxing Gibbous, 86% of the Moon is Illuminated
Dec 24
Waxing Gibbous
Dec 28
Full
Jan 5
Last Quarter
Jan 11
New
Jan 19
First Quarter

Hourly Weather History & Observations

Time (CET) Temp. Windchill Dew Point Humidity Pressure Visibility Wind Dir Wind Speed Gust Speed Precip Events Conditions
12:55 AM 44.6 °F 38.8 °F 19.4 °F 37% 30.12 in - SSW 11.5 mph - N/A   Clear
1:00 AM 45 °F - 20 °F 24%  in 31 mi SSW 11.5 mph - -   Overcast
1:55 AM 44.6 °F 39.7 °F 21.2 °F 39% 30.12 in - WSW 9.2 mph - N/A   Clear
2:55 AM 44.6 °F 38.8 °F 21.2 °F 39% 30.12 in - WSW 11.5 mph - N/A   Clear
3:55 AM 42.8 °F 35.1 °F 19.4 °F 39% 30.12 in - WSW 16.1 mph - N/A   Clear
4:00 AM 43 °F - 20 °F 27%  in 31 mi WSW 16.1 mph - -   Mostly Cloudy
4:55 AM 42.8 °F 34.5 °F 19.4 °F 39% 30.12 in - SW 18.4 mph - N/A   Clear
5:55 AM 44.6 °F 36.9 °F 21.2 °F 39% 30.12 in - SW 18.4 mph - N/A   Clear
6:55 AM 42.8 °F 34.3 °F 21.2 °F 42% 30.12 in - SW 19.6 mph - N/A   Clear
7:00 AM 43 °F - 20 °F 27%  in 31 mi SW 19.6 mph - -   Partly Cloudy
7:55 AM 42.8 °F 34.5 °F 21.2 °F 42% 30.12 in - SW 18.4 mph - N/A   Clear
8:55 AM 42.8 °F 35.4 °F 21.2 °F 42% 30.12 in - SSW 15.0 mph - N/A   Clear
9:55 AM 42.8 °F 34.3 °F 21.2 °F 42% 30.12 in - SSW 19.6 mph - N/A   Clear
10:00 AM 43 °F - 22 °F 29%  in 25 mi SSW 19.6 mph - -   Scattered Clouds
10:55 AM 42.8 °F 34.0 °F 23.0 °F 46% 30.15 in - SSW 20.7 mph - N/A   Clear
11:55 AM 42.8 °F 34.0 °F 23.0 °F 46% 30.12 in - SSW 20.7 mph - N/A   Clear
12:55 PM 41.0 °F 30.9 °F 23.0 °F 49% 30.09 in - SSW 24.2 mph - N/A   Clear
1:00 PM 42 °F - 24 °F 35%  in 25 mi SSW 24.2 mph - -   Scattered Clouds
1:55 PM 42.8 °F 32.7 °F 23.0 °F 46% 30.06 in - SW 27.6 mph - N/A   Clear
2:55 PM 42.8 °F 33.5 °F 21.2 °F 42% 30.06 in - SW 23.0 mph - N/A   Clear
3:55 PM 44.6 °F 36.1 °F 24.8 °F 46% 30.06 in - WSW 21.9 mph - N/A   Clear
4:00 PM 44 °F - 25 °F 35%  in 25 mi WSW 21.9 mph - -   Clear
4:55 PM 41.0 °F 31.6 °F 23.0 °F 49% 30.04 in - SW 20.7 mph - N/A   Clear
5:55 PM 39.2 °F 29.6 °F 24.8 °F 56% 30.04 in - SW 19.6 mph - N/A   Clear
6:55 PM 39.2 °F 30.8 °F 23.0 °F 52% 30.04 in - SW 15.0 mph - N/A   Clear
7:55 PM 39.2 °F 34.2 °F 24.8 °F 56% 30.04 in - West 6.9 mph - N/A   Clear
8:55 PM 41.0 °F 35.8 °F 23.0 °F 49% 30.06 in - West 8.1 mph - N/A   Clear
9:55 PM 39.2 °F 35.0 °F 24.8 °F 56% 30.06 in - SSW 5.8 mph - N/A   Clear
10:00 PM 39 °F - 24 °F 43%  in 19 mi SSW 5.8 mph - -   Mostly Cloudy
10:55 PM 35.6 °F 29.9 °F 26.6 °F 70% 30.06 in - SSW 6.9 mph - N/A   Clear
11:55 PM 30.2 °F 18.1 °F 30.2 °F 100% 30.06 in 0.2 mi SSW 18.4 mph - N/A Fog Light Freezing Fog